Погода в Барановичи

Погода в Барановичи : погода сейчас, прогноз погоды и архив. Всё, что Вы хотите узнать о погоде в Барановичи!

Хотите узнать прогноз погоды в Барановичи? Тогда Вам сюда: Погода в Барановичи

Поиск расширенной информации на нашем сайте:

Другие новости

Новости СМИ2

Главная страница сайта

Новости сайта

03.07.2017

Напоминаем, что на нашем специализированном сайте Метеоцентр.Азия вы можете получить высокодетализированные автоматические прогнозы погоды по пунктам России, СНГ и мира в авиационном формате (включающие направление и скорость ветра, видимость, явления погоды, количество и форму облачности, нижнюю и верхнюю границу облачности).


Погода в Барановичи - сегодня

Время (UTC), дата Ветер
(°,м/с) 
Видим.   Явления Облачность Т
(°С)
Тd
(°С)
f(%) Тe
(°С)
Pmin
(гПа)
dP
(гПа)
Po
(мм)
O2
(г/м3)
Тmin Tmax R s Состояние
почвы
21 18.09.17 230 (ЮЗ) 5{15}  10 км    9/9 600 м 
[Sc]
+10.8 +6.9 77 +10  1011.8  3.2  742  286           
00 19.09.17 230 (ЮЗ) 4{11}  10 км    5/5 600 м 
[Sc]
+9.8 +7.1 83 +9  1013.9  1.9  743  288           
03 19.09.17 220 (ЮЗ) 10 км    4/4 600 м 
[Sc]
+8.6 +7.3 92 +8  1015  744  289           
06 19.09.17 230 (ЮЗ) 10 км    9/9 1000 м 
[Sc]
+9.2 +7.5 89 +9  1016.3  1.3  745  289  +8.4         
09 19.09.17 200 (Ю) 10 км    3/3 1000 м 
[Cu hum]
+13.5 +7.4 67 +14  1017.4  1.5  746  285           
12 19.09.17 250 (З) 10 км    5/3 1000 м верхняя 
[Cu hum|Ci sp]
+16.8 +4.2 43 +17  1017.3  0.2  746  282           
15 19.09.17 220 (ЮЗ) 10 км    6/3 1000 м верхняя 
[Cu hum|Cs]
+16.8 +5 46 +18  1017.4  0.1  746  282           
18 19.09.17 тихо ()   10 км    6/0 средняя 
[Ac As]
+11.8 +8 78 +12  1018.6  0.7  747  287    +17.6       
21 19.09.17 тихо ()   10 км    ясно 
+10.6 +8.3 86 +11  1018.7  747  288           
00 20.09.17 тихо ()   10 км    9/0 средняя 
[Ac As]
+10.5 +8.1 85 +11  1018.5  -0.2  746  288           
03 20.09.17 120 (ЮВ) 8000 м  слаб. ливневой дождь  10/10 600 м кучево-дожд. 
[Cb calv]
+11.2 +8.3 82 +11  1018.3  -0.1  746  287      0.4     
06 20.09.17 040 (СВ) 8000 м  слаб. ливневой дождь  10/10 600 м кучево-дожд. 
[Cb calv]
+10.5 +9.5 94 +12  1018.6  0.2  746  288  +9.8       
09 20.09.17 040 (СВ) 7000 м  в посл. час ливневой дождь  10/10 300 м кучево-дожд. 
[Cb calv]
+11.1 +9.9 92 +12  1018.2  -0.4  746  287      0.3     
15 20.09.17 050 (СВ) 10 км    9/9 600 м 
[Sc]
+13.3 +10.3 82 +15  1016.5  -0.3  745  284      0.3     
18 20.09.17 020 (С) 10 км    9/9 600 м 
[Sc]
+12.3 +10.5 89 +14  1016.8  0.2  745  285    +13.9  0.3     
21 20.09.17 020 (С) 10 км    8/8 600 м 
[Sc]
+11.5 +10.1 91 +13  1016.7  -0.2  745  286           
00 21.09.17 040 (СВ) 10 км    9/9 600 м 
[Sc]
+11.6 +9.6 88 +12  1015.6  -1.1  744  286           
03 21.09.17 030 (СВ) 10 км    10/10 600 м кучево-дожд. 
[Cb calv]
+11 +9.5 90 +11  1014.7  -0.9  744  286           
06 21.09.17 030 (СВ) 4000 м  слаб. ливневой дождь  10/10 300 м кучево-дожд. 
[Cb calv]
+10.8 +9.8 94 +11  1011.8  -2.8  742  286  +10.6       
09 21.09.17 060 (СВ) 10 км  {ливн. осадки}  9/9 600 м 
[Sc]
+12.6 +10.5 87 +14  1012.1  0.4  742  284      0.0     
12 21.09.17 040 (СВ) 10 км  {ливн. осадки}  9/9 600 м 
[Sc]
+14.2 +11.1 82 +18  1011.5  -0.4  742  282           
15 21.09.17 020 (С) 10 км    9/9 600 м 
[Sc]
+14.4 +12.1 86 +19  1011.4  -0.1  741  281      0.0     
18 21.09.17 320 (СЗ) 10 км    9/9 600 м 
[Sc]
+13.8 +12.4 91 +20  1012.4  0.9  742  282    +14.6  0.0     
21 21.09.17 060 (СВ) 6000 м  гроза, ливневой дождь  10/10 600 м кучево-дожд. 
[Cb calv]
+14 +13.3 96 +21  1013  0.6  743  282         
00 22.09.17 080 (В) 10 км  {гроза, ливн. осадки}  ясно 
+13.6 +12.9 96 +20  1012.6  -0.4  742  282         
Время (UTC), дата Ветер
(°,м/с) 
Видим.   Явления Облачность Т
(°С)
Тd
(°С)
f(%) Тe
(°С)
Pmin
(гПа)
dP
(гПа)
Po
(мм)
O2
(г/м3)
Тmin Tmax R s Состояние
почвы

Для получения пояснительной информации подведите курсор к названию столбца.

ПОГОДА в Барановичи - архив

Всё, что Вы хотите узнать о погоде в Барановичи - удобно и подробно!

Выберите нужную дату (начиная с 1 января 2015* года) и нажмите кнопку "Найти".
Будут отображены архивные сводки погоды по пункту Барановичи, начиная с указанной даты.


Отображать данные в формате CSV (для использования в таблицах Excel)


Внимание! Наш архив погоды предназначен исключительно для личного некоммерческого использования в познавательных целях. Если Вам необходимы официальные справки о состоянии погоды (для производственных, юридических, коммерческих и т.п. целей), обращайтесь в органы Росгидромета.

*Примечание: данная дата относится к архиву по метеостанциям СССР (Россия, СНГ, Балтия).
Архив по метеостанциям Зарубежной Европы и Азии (кроме Китая) хранится 10 дней, по другим регионам земного шара (Китай, Африка, Америка, Австралия, Океания) - 1 день.

Барановичи - район местоположения метеостанции


Название, широта, долгота, высота метеостанции:
Барановичи 53.1°ш. 26°д. 193 м над ур. моря [Беларусь]

Дополнительная информация

В oтличие oт бoльшинства пoгoдных сайтoв мы публикуем пoдрoбную метеoинфoрмацию в детальнoм прoфессиoнальнoм фoрмате.

Характеристики температуры и влажнoсти вoздуха измеряются на высoте 2 м в тени вдали oт зданий и деревьев.
Скoрoсть ветра измеряется на высoте 10 м (на урoвне рoста челoвека скoрoсть ветра ниже в 1.5-2 раза). Если метеoстанция нахoдится в гoрoде или в лесу, тo скoрoсть ветра занижена на 2-4 м/с пo сравнению с oткрытым местoм. Скoрoсть ветра над акватoриями крупных рек и oзёр, а также на вершинах хoлмoв на 2-5 м/с выше, чем в oбычных услoвиях.
Атмoсфернoе давление в разных тoчках местнoсти мoжет значительнo oтличаться oт давления на метеoстанции, в зависимoсти oт услoвий рельефа (при пoдъёме на 10 м давление пoнижается примернo на 1 мм рт.ст.).